Arlington, WA

6:22 PM PST on December 03, 2016 (GMT -0800)
Arlington Municipal

Weather History for KAWO - February, 2012

Change the Weather History Date:

Saturday, February 25, 2012

  Actual Average Record
Temperature  
Mean Temperature 40 °F -  
Max Temperature 44 °F 51 °F 59 °F (2016)
Min Temperature 35 °F 27 °F 17 °F (2011)
Degree Days  
Heating Degree Days 24    
Moisture  
Dew Point 37 °F    
Average Humidity 90    
Maximum Humidity 100    
Minimum Humidity 66    
Precipitation  
Precipitation 0.11 in - - ()
Sea Level Pressure  
Sea Level Pressure 29.97 in    
Wind  
Wind Speed 10 mph (SW)    
Max Wind Speed 24 mph    
Max Gust Speed 32 mph    
Visibility 10 miles    
Events      
Averages and records for this station are not official NWS values.
T = Trace of Precipitation, MM = Missing Value Source: NWS Daily Summary

Daily Weather History Graph

Daily Weather History Graph

Search for Another Location

Airport or City:

Trip Planner

Search our weather history database for the weather conditions in past years. The results will help you decide how hot, cold, wet, or windy it might be!

Date:

Astronomy

Feb. 25, 2012 Rise Set
Actual Time 6:58 AM PST 5:46 PM PST
Civil Twilight 6:26 AM PST 6:17 PM PST
Nautical Twilight 5:50 AM PST 6:53 PM PST
Astronomical Twilight 5:14 AM PST 7:29 PM PST
Moon 8:02 AM PST (2/25) 10:17 PM PST (2/25)
Length of Visible Light 11h 50m
Length of Day
10h 47m
Waxing Crescent, 14% of the Moon is Illuminated
Feb 25
Waxing Crescent
Feb 29
First Quarter
Mar 8
Full
Mar 14
Last Quarter
Mar 22
New

Hourly Weather History & Observations

Time (PST) Temp. Windchill Dew Point Humidity Pressure Visibility Wind Dir Wind Speed Gust Speed Precip Events Conditions
12:15 AM 44.6 °F 38.8 °F 42.8 °F 93% 29.57 in 10.0 mi South 11.5 mph - N/A   Overcast
1:35 AM 42.8 °F 35.4 °F 42.8 °F 100% 29.59 in 10.0 mi South 15.0 mph - N/A   Overcast
1:55 AM 42.8 °F 37.0 °F 42.8 °F 100% 29.60 in 10.0 mi South 10.4 mph 18.4 mph N/A   Overcast
2:15 AM 42.8 °F 37.5 °F 42.8 °F 100% 29.60 in 4.0 mi SSW 9.2 mph 19.6 mph 0.01 in   Overcast
2:35 AM 42.8 °F 36.6 °F 42.8 °F 100% 29.63 in 5.0 mi WSW 11.5 mph - 0.03 in   Overcast
2:55 AM 39.2 °F 37.0 °F 39.2 °F 100% 29.64 in 10.0 mi West 3.5 mph - 0.08 in   Overcast
3:15 AM 39.2 °F 35.0 °F 39.2 °F 100% 29.65 in 10.0 mi WNW 5.8 mph - N/A   Overcast
3:35 AM 39.2 °F 35.9 °F 39.2 °F 100% 29.66 in 10.0 mi WNW 4.6 mph - N/A   Overcast
4:15 AM 39.2 °F 32.5 °F 37.4 °F 93% 29.68 in 10.0 mi NW 10.4 mph 19.6 mph N/A   Overcast
4:35 AM 39.2 °F 32.0 °F 35.6 °F 87% 29.70 in 10.0 mi WNW 11.5 mph 20.7 mph N/A   Overcast
4:55 AM 39.2 °F 32.0 °F 35.6 °F 87% 29.72 in 10.0 mi WNW 11.5 mph 18.4 mph N/A   Overcast
5:15 AM 41.0 °F 32.2 °F 35.6 °F 81% 29.73 in 10.0 mi WNW 18.4 mph 25.3 mph N/A   Overcast
5:35 AM 41.0 °F 33.5 °F 33.8 °F 76% 29.75 in 10.0 mi West 13.8 mph 26.5 mph N/A   Overcast
5:55 AM 41.0 °F 33.5 °F 33.8 °F 76% 29.77 in 10.0 mi West 13.8 mph 24.2 mph N/A   Overcast
6:15 AM 41.0 °F 33.5 °F 33.8 °F 76% 29.79 in 10.0 mi West 13.8 mph 24.2 mph N/A   Overcast
6:35 AM 41.0 °F 33.9 °F 33.8 °F 76% 29.80 in 10.0 mi West 12.7 mph 29.9 mph N/A   Overcast
6:55 AM 39.2 °F 29.8 °F 33.8 °F 81% 29.82 in 10.0 mi West 18.4 mph 27.6 mph N/A   Mostly Cloudy
7:15 AM 39.2 °F 28.5 °F 33.8 °F 81% 29.83 in 10.0 mi West 24.2 mph 32.2 mph N/A   Overcast
7:55 AM 37.4 °F - 33.8 °F 87% 29.87 in 10.0 mi Calm Calm - N/A   Overcast
8:35 AM 37.4 °F 32.8 °F 35.6 °F 93% 29.91 in 10.0 mi NNW 5.8 mph - N/A   Overcast
8:55 AM 39.2 °F 33.0 °F 33.8 °F 81% 29.92 in 10.0 mi WNW 9.2 mph 19.6 mph N/A   Overcast
9:15 AM 37.4 °F 32.1 °F 35.6 °F 93% 29.95 in 10.0 mi WSW 6.9 mph - 0.01 in   Overcast
9:35 AM 37.4 °F 34.9 °F 37.4 °F 100% 29.96 in 9.0 mi SW 3.5 mph - 0.01 in   Overcast
9:55 AM 37.4 °F 31.4 °F 37.4 °F 100% 29.98 in 7.0 mi WSW 8.1 mph - 0.01 in   Overcast
10:35 AM 37.4 °F 32.1 °F 35.6 °F 93% 30.00 in 10.0 mi South 6.9 mph - 0.02 in   Mostly Cloudy
10:55 AM 37.4 °F 30.3 °F 37.4 °F 100% 30.00 in 10.0 mi South 10.4 mph - 0.02 in   Mostly Cloudy
11:35 AM 39.2 °F 33.0 °F 37.4 °F 93% 30.02 in 10.0 mi South 9.2 mph - N/A   Mostly Cloudy
11:55 AM 39.2 °F 33.6 °F 39.2 °F 100% 30.03 in 10.0 mi South 8.1 mph - N/A   Overcast
12:15 PM 39.2 °F 33.0 °F 39.2 °F 100% 30.04 in 10.0 mi South 9.2 mph - N/A   Overcast
12:35 PM 39.2 °F 33.0 °F 37.4 °F 93% 30.05 in 10.0 mi South 9.2 mph - N/A   Mostly Cloudy
12:55 PM 39.2 °F 35.0 °F 39.2 °F 100% 30.05 in 10.0 mi South 5.8 mph - N/A   Overcast
1:15 PM 41.0 °F 34.7 °F 41.0 °F 100% 30.05 in 10.0 mi South 10.4 mph - N/A   Mostly Cloudy
1:35 PM 42.8 °F 38.6 °F 39.2 °F 87% 30.06 in 10.0 mi SSW 6.9 mph - N/A   Overcast
1:55 PM 41.0 °F 35.8 °F 37.4 °F 87% 30.07 in 10.0 mi South 8.1 mph - N/A   Mostly Cloudy
2:15 PM 41.0 °F 37.1 °F 37.4 °F 87% 30.08 in 10.0 mi SSW 5.8 mph - N/A   Overcast
2:35 PM 42.8 °F 40.1 °F 35.6 °F 76% 30.08 in 10.0 mi West 4.6 mph - N/A   Overcast
2:55 PM 42.8 °F 39.3 °F 35.6 °F 76% 30.09 in 10.0 mi West 5.8 mph - N/A   Overcast
3:15 PM 42.8 °F 37.5 °F 37.4 °F 81% 30.09 in 10.0 mi South 9.2 mph - N/A   Overcast
3:55 PM 42.8 °F 40.1 °F 37.4 °F 81% 30.11 in 10.0 mi West 4.6 mph - N/A   Overcast
4:15 PM 42.8 °F 37.0 °F 33.8 °F 70% 30.11 in 10.0 mi West 10.4 mph 18.4 mph N/A   Overcast
4:35 PM 42.8 °F 34.8 °F 32.0 °F 66% 30.10 in 10.0 mi WNW 17.3 mph 21.9 mph N/A   Overcast
4:55 PM 42.8 °F 38.6 °F 33.8 °F 70% 30.11 in 10.0 mi SW 6.9 mph - N/A   Mostly Cloudy
5:15 PM 41.0 °F 39.0 °F 37.4 °F 87% 30.12 in 10.0 mi South 3.5 mph - N/A   Overcast
5:35 PM 41.0 °F 38.0 °F 37.4 °F 87% 30.12 in 10.0 mi SSE 4.6 mph - N/A   Mostly Cloudy
5:55 PM 39.2 °F 35.0 °F 39.2 °F 100% 30.12 in 10.0 mi SSE 5.8 mph - N/A   Overcast
6:15 PM 39.2 °F 35.9 °F 39.2 °F 100% 30.13 in 10.0 mi South 4.6 mph - N/A   Overcast
6:35 PM 39.2 °F 37.0 °F 39.2 °F 100% 30.14 in 10.0 mi South 3.5 mph - N/A   Overcast
6:55 PM 39.2 °F - 39.2 °F 100% 30.14 in 10.0 mi Calm Calm - N/A   Overcast
7:15 PM 39.2 °F 34.2 °F 37.4 °F 93% 30.15 in 10.0 mi South 6.9 mph - N/A   Overcast
7:35 PM 39.2 °F 32.5 °F 39.2 °F 100% 30.15 in 10.0 mi SSE 10.4 mph - N/A   Overcast
7:55 PM 39.2 °F 33.6 °F 37.4 °F 93% 30.15 in 10.0 mi SSE 8.1 mph - N/A   Overcast
8:15 PM 39.2 °F 37.0 °F 37.4 °F 93% 30.15 in 10.0 mi South 3.5 mph - N/A   Overcast
8:55 PM 39.2 °F 35.0 °F 37.4 °F 93% 30.16 in 10.0 mi West 5.8 mph - N/A   Overcast
9:15 PM 39.2 °F 34.2 °F 35.6 °F 87% 30.16 in 10.0 mi SW 6.9 mph - N/A   Overcast
9:35 PM 37.4 °F 30.8 °F 37.4 °F 100% 30.17 in 10.0 mi South 9.2 mph - N/A   Overcast
9:55 PM 37.4 °F 30.8 °F 35.6 °F 93% 30.17 in 10.0 mi South 9.2 mph - N/A   Overcast
10:15 PM 37.4 °F 30.8 °F 35.6 °F 93% 30.18 in 10.0 mi South 9.2 mph - N/A   Overcast
10:35 PM 37.4 °F 30.3 °F 35.6 °F 93% 30.18 in 10.0 mi South 10.4 mph - N/A   Overcast
11:15 PM 37.4 °F 30.8 °F 35.6 °F 93% 30.19 in 10.0 mi South 9.2 mph - N/A   Overcast
11:35 PM 37.4 °F 31.4 °F 35.6 °F 93% 30.19 in 10.0 mi South 8.1 mph - N/A   Overcast
11:55 PM 35.6 °F 30.7 °F 35.6 °F 100% 30.19 in 10.0 mi South 5.8 mph - N/A   Overcast